I2HLY-3 Weather Reports


Display with metric or nautical units.
time (UTC)temp
F
wind
direction
speed
MPH
gust
MPH
rain 1hr
in
rain 24hr
in
rain mn
in
humidity
%
barometer
mb
20260903123233 87 178 5.0 8.0 0.00 0.00 0.00 51 1017.1
20260903121720 87 196 4.0 9.0 0.00 0.00 0.00 53 1017.3
20260903120234 87 63 2.0 7.0 0.00 0.00 0.00 52 1017.5
20260903113223 88 233 2.0 5.0 0.00 0.00 0.00 50 1017.5
20260903111735 87 222 4.0 6.0 0.00 0.00 0.00 52 1017.4
20260903110223 87 186 2.0 9.0 0.00 0.00 0.00 52 1017.7
20260903104728 87 150 4.0 8.0 0.00 0.00 0.00 55 1018.0
20260903103232 86 147 3.0 7.0 0.00 0.00 0.00 54 1018.2
20260903100234 86 86 3.0 6.0 0.00 0.00 0.00 54 1018.5
20260903094735 86 149 2.0 9.0 0.00 0.00 0.00 53 1018.4
20260903093232 85 140 2.0 4.0 0.00 0.00 0.00 53 1018.4
20260903091734 85 154 2.0 9.0 0.00 0.00 0.00 55 1018.5
20260903090226 84 189 3.0 9.0 0.00 0.00 0.00 55 1018.5
20260903084727 83 99 2.0 7.0 0.00 0.00 0.00 53 1018.4
20260903083232 83 94 3.0 7.0 0.00 0.00 0.00 55 1018.5
20260903081732 83 97 3.0 7.0 0.00 0.00 0.00 55 1018.6
20260903080236 83 94 2.0 6.0 0.00 0.00 0.00 58 1018.5
20260903074721 81 319 1.0 2.0 0.00 0.00 0.00 66 1018.2
20260903073231 80 319 0.0 3.0 0.00 0.00 0.00 66 1018.1
20260903071719 78 319 1.0 2.0 0.00 0.00 0.00 71 1018.2
20260903070221 77 319 0.0 3.0 0.00 0.00 0.00 74 1018.1
20260903064727 75 319 0.0 3.0 0.00 0.00 0.00 77 1018.1
20260903063221 73 319 1.0 2.0 0.00 0.00 0.00 81 1018.1
20260903061736 71 319 0.0 1.0 0.00 0.00 0.00 88 1018.0
20260903060235 67 318 0.0 0.0 0.00 0.00 0.00 93 1017.9
20260903054719 66 319 0.0 0.0 0.00 0.00 0.00 94 1017.7
20260903053237 64 319 0.0 2.0 0.00 0.00 0.00 94 1017.7
20260903051725 62 315 1.0 2.0 0.00 0.00 0.00 94 1017.6
20260903050233 62 315 0.0 0.0 0.00 0.00 0.00 94 1017.5
20260903044727 62 315 0.0 0.0 0.00 0.00 0.00 94 1017.3
20260903043221 62 315 0.0 1.0 0.00 0.00 0.00 94 1017.2
20260903041725 63 315 0.0 0.0 0.00 0.00 0.00 94 1017.0
20260903040223 63 315 0.0 3.0 0.00 0.00 0.00 94 1017.0
20260903034727 63 315 0.0 0.0 0.00 0.00 0.00 94 1017.0
20260903033224 63 315 0.0 2.0 0.00 0.00 0.00 93 1016.8
20260903031738 63 315 0.0 0.0 0.00 0.00 0.00 93 1016.8
20260903030226 63 315 0.0 1.0 0.00 0.00 0.00 94 1016.8
20260903024732 63 315 0.0 0.0 0.00 0.00 0.00 94 1016.8
20260903023223 63 315 0.0 0.0 0.00 0.00 0.00 93 1016.7
20260903021735 63 315 1.0 2.0 0.00 0.00 0.00 93 1016.7
20260903020235 64 315 0.0 1.0 0.00 0.00 0.00 93 1016.7
20260903014724 64 315 0.0 0.0 0.00 0.00 0.00 93 1016.6
20260903013228 64 315 0.0 0.0 0.00 0.00 0.00 93 1016.6
20260903011734 64 315 0.0 0.0 0.00 0.00 0.00 93 1016.7
20260903010221 64 315 1.0 2.0 0.00 0.00 0.00 93 1016.6
20260903004737 64 315 0.0 0.0 0.00 0.00 0.00 93 1016.7
20260903003236 64 315 0.0 0.0 0.00 0.00 0.00 92 1016.7
20260903001729 65 315 0.0 0.0 0.00 0.00 0.00 92 1016.7
20260903000233 65 315 0.0 0.0 0.00 0.00 0.00 92 1016.6
20260902234721 66 315 0.0 0.0 0.00 0.00 0.00 91 1016.6
20260902233227 66 315 0.0 1.0 0.00 0.00 0.00 90 1016.5
20260902231730 67 315 0.0 1.0 0.00 0.00 0.00 90 1016.6
20260902230228 67 315 0.0 0.0 0.00 0.00 0.00 89 1016.4
20260902224721 67 315 0.0 0.0 0.00 0.00 0.00 88 1016.4
20260902223232 68 315 0.0 1.0 0.00 0.00 0.00 86 1016.4
20260902221727 69 315 0.0 2.0 0.00 0.00 0.00 86 1016.2
20260902220228 69 315 1.0 2.0 0.00 0.00 0.00 86 1016.2
20260902214722 69 315 0.0 3.0 0.00 0.00 0.00 86 1016.0
20260902213224 69 315 1.0 4.0 0.00 0.00 0.00 86 1016.0
20260902211738 69 290 1.0 3.0 0.00 0.00 0.00 86 1015.9
20260902210230 69 289 0.0 0.0 0.00 0.00 0.00 86 1015.9
20260902204726 70 289 1.0 4.0 0.00 0.00 0.00 84 1015.8
20260902203234 70 295 2.0 3.0 0.00 0.00 0.00 84 1015.8
20260902201731 71 290 1.0 2.0 0.00 0.00 0.00 81 1015.6
20260902200229 72 290 0.0 1.0 0.00 0.00 0.00 80 1015.6
20260902194721 73 290 0.0 0.0 0.00 0.00 0.00 78 1015.6
20260902193234 74 290 1.0 2.0 0.00 0.00 0.00 76 1015.5
20260902191722 74 290 0.0 1.0 0.00 0.00 0.00 74 1015.2
20260902190228 76 290 1.0 1.0 0.00 0.00 0.00 71 1015.2
20260902184721 77 290 0.0 1.0 0.00 0.00 0.00 70 1015.0
20260902183222 79 290 1.0 2.0 0.00 0.00 0.00 66 1014.9
20260902181733 80 289 0.0 2.0 0.00 0.00 0.00 60 1014.7
20260902180225 82 290 0.0 1.0 0.00 0.00 0.00 59 1014.7
20260902174737 84 290 1.0 2.0 0.00 0.00 0.00 53 1014.6
20260902173230 85 287 1.0 4.0 0.00 0.00 0.00 51 1014.5
20260902171731 85 288 2.0 4.0 0.00 0.00 0.00 50 1014.4
20260902170238 86 299 2.0 3.0 0.00 0.00 0.00 50 1014.5
20260902164739 85 215 0.0 4.0 0.00 0.00 0.00 52 1014.4
20260902163223 87 215 2.0 4.0 0.00 0.00 0.00 49 1014.5
20260902161737 87 229 2.0 5.0 0.00 0.00 0.00 51 1014.5
20260902160223 87 252 2.0 8.0 0.00 0.00 0.00 49 1014.5
20260902154726 87 160 3.0 5.0 0.00 0.00 0.00 51 1014.6
20260902153220 87 190 2.0 6.0 0.00 0.00 0.00 54 1014.8
20260902151726 87 221 3.0 5.0 0.00 0.00 0.00 48 1014.8
20260902150229 87 171 3.0 6.0 0.00 0.00 0.00 48 1014.9
20260902144729 87 164 3.0 9.0 0.00 0.00 0.00 51 1015.1
20260902143231 87 219 4.0 7.0 0.00 0.00 0.00 51 1015.2
20260902141729 86 184 5.0 9.0 0.00 0.00 0.00 52 1015.2
20260902140225 86 90 2.0 8.0 0.00 0.00 0.00 50 1015.4
20260902134731 86 209 4.0 5.0 0.00 0.00 0.00 52 1015.5
20260902133231 86 316 2.0 7.0 0.00 0.00 0.00 52 1015.7
20260902131738 86 184 1.0 8.0 0.00 0.00 0.00 51 1015.9